User: anonymous   Login
Location: Unspecified
(0.0000°N, 0.0000°E)
Time: 04:47:27
(UTC+00:00)
Language:

Ajisai (EGP) Rocket - Orbit

View from above orbital plane
View from above orbital plane
View from above satellite
View from above satellite

Ground track
Ground track

The orbit data is extracted from the following two-line orbital elements,

1 16910U 86061C   18020.22477815 -.00000091 +00000-0 +27121-4 0  9993
2 16910 050.0052 289.2982 0071713 186.7054 338.5634 12.32573179415823
Epoch (UTC): 20 January 2018 05:23:40
Eccentricity: 0.0071713
inclination: 50.0052°
perigee height: 1481 km
apogee height: 1595 km
right ascension of ascending node: 289.2982°
argument of perigee: 186.7054°
revolutions per day: 12.32573179
mean anomaly at epoch: 338.5634°
orbit number at epoch: 41582

The dashed part of the orbit path shows where the satellite is in the earth's shadow,  

DLR